Location: Chèvreville
(49.1099°N, 2.8495°E)
Time: 14:11:54
(UTC+00:00)

NOSS 2-1 (E) - Pass Details

Date: 28 January 2023
Orbit: 400 x 1778 km, 63.3° (Epoch: 09 March)

Event Time Altitude Azimuth Distance (km) Brightness Sun altitude
Rises 18:03:16 0° 318° (NW) 2,684 7.3 -13.9°
Reaches altitude 10° 18:05:10 10° 319° (NW) 1,914 6.5 -14.2°
Maximum altitude 18:09:26 84° 48° (NE) 736 3.8 -14.9°
Drops below altitude 10° 18:15:32 10° 137° (SE) 2,693 6.5 -15.8°
Sets 18:18:37 0° 138° (SE) 3,882 7.3 -16.3°
